Location: Newark
(36.0797°N, 3.9744°E)
Time: 17:01:01
(UTC+00:00)

Tiros 1 despin weight - Visible Passes

Search period start: 05 December 2019 00:00
Search period end: 15 December 2019 00:00
Orbit: 594 x 642 km, 48.2° (Epoch: 05 December)

Date Brightness Start Highest point End Pass type
(mag) Time Alt. Az. Time Alt. Az. Time Alt. Az.
05 Dec ? 05:08:25 10° S 05:12:08 25° SE 05:15:48 10° ENE visible
06 Dec ? 05:24:07 10° SW 05:28:30 52° SE 05:32:51 10° ENE visible
07 Dec ? 04:02:02 13° SSE 04:03:53 17° SE 04:06:46 10° E visible
07 Dec ? 05:40:30 10° WSW 05:45:01 79° NW 05:49:30 10° NE visible
08 Dec ? 04:19:25 32° SSE 04:20:12 34° SE 04:24:16 10° ENE visible
08 Dec ? 05:57:22 10° W 06:01:41 43° NNW 06:05:57 10° NE visible
09 Dec ? 04:36:23 69° SSE 04:36:38 72° SE 04:41:06 10° ENE visible
10 Dec ? 04:53:03 60° NW 04:53:12 60° NNW 04:57:39 10° NE visible
11 Dec ? 03:32:23 11° ENE 03:32:23 11° ENE 03:32:37 10° ENE visible
11 Dec ? 05:09:29 35° NW 05:09:56 35° NNW 05:14:04 10° NE visible
12 Dec ? 03:48:39 14° NE 03:48:39 14° NE 03:49:18 10° NE visible
12 Dec ? 05:25:44 22° NW 05:26:48 24° NNW 05:30:28 10° NE visible
13 Dec ? 04:04:48 16° NE 04:04:48 16° NE 04:05:46 10° NE visible
13 Dec ? 05:41:52 15° NW 05:43:47 19° N 05:47:01 10° NE visible
14 Dec ? 04:20:52 17° NNE 04:20:52 17° NNE 04:22:11 10° NE visible
14 Dec ? 05:57:55 10° NW 06:00:49 17° N 06:03:48 10° NE visible
